Date,TemperatureHighF,TemperatureAvgF,TemperatureLowF,DewpointHighF,DewpointAvgF,DewpointLowF,HumidityHigh,HumidityAvg,HumidityLow,PressureMaxIn,PressureMinIn,WindSpeedMaxMPH,WindSpeedAvgMPH,GustSpeedMaxMPH,PrecipitationSumIn
2012-4-11,58,52,44,32,26,22,62,38,25,30.23,30.21,9,2,14,0.00
2012-4-12,65,51,36,37,31,27,84,52,27,30.27,30.07,9,2,17,0.00
2012-4-13,58,53,48,48,41,33,88,67,40,30.13,29.99,11,3,20,0.00
2012-4-14,79,62,52,65,55,-100,92,80,55,30.06,29.76,9,3,21,0.00
2012-4-15,77,70,58,61,58,53,89,65,56,29.78,29.63,14,8,28,0.00
2012-4-16,69,60,54,54,44,39,86,59,36,30.22,29.63,18,8,37,0.00
2012-4-17,70,60,46,47,43,39,88,59,35,30.34,30.22,7,2,14,0.00
2012-4-18,74,70,62,46,44,38,53,40,30,30.15,29.98,7,4,16,0.00
2012-4-19,78,66,51,50,46,42,81,51,30,30.00,29.75,10,4,25,0.00
2012-4-20,65,55,50,54,44,36,85,68,47,29.99,29.68,14,7,22,0.00
2012-4-21,62,52,44,40,34,-100,73,52,34,30.02,29.93,14,7,22,0.00
2012-4-22,58,52,46,47,40,24,90,66,34,30.10,29.86,14,6,25,0.00
2012-4-23,65,52,40,37,32,24,76,48,28,30.10,29.91,18,6,34,0.00
2012-4-24,78,62,47,52,43,37,68,51,33,29.92,29.60,11,4,20,0.00
2012-4-25,88,71,54,63,56,50,87,62,29,29.64,29.50,9,3,20,0.00
2012-4-26,81,73,63,63,54,41,84,54,36,30.02,29.57,15,8,24,0.00
2012-4-27,62,55,47,44,33,20,57,44,32,30.14,29.88,9,4,20,0.00
2012-4-28,80,64,55,64,53,-100,90,71,53,30.00,29.80,17,4,28,0.00
2012-4-29,66,59,52,59,54,48,89,84,73,30.08,29.94,11,4,16,0.00
2012-4-30,73,67,62,62,60,59,91,79,64,29.97,29.90,9,3,17,0.00
2012-5-1,86,73,61,66,62,58,91,70,43,29.96,29.77,11,4,20,0.00
2012-5-2,88,78,69,65,62,57,79,60,37,29.91,29.79,11,5,26,0.00
2012-5-3,85,77,69,69,65,62,81,65,51,29.98,29.85,12,5,25,0.00
2012-5-4,84,75,68,70,66,62,90,75,61,30.03,29.81,14,3,26,0.00
2012-5-5,90,81,71,72,68,-100,90,68,43,29.88,29.81,9,2,14,0.00
2012-5-6,91,82,71,70,67,62,89,64,40,29.89,29.77,7,3,16,0.00
2012-5-7,79,69,64,67,64,59,91,82,62,29.91,29.79,10,4,31,0.00
2012-5-8,76,69,59,60,44,37,86,43,27,29.98,29.90,12,6,23,0.00
2012-5-9,70,62,55,48,45,41,71,56,37,29.99,29.90,12,4,21,0.00
2012-5-10,74,64,52,50,47,43,84,57,35,30.00,29.92,6,2,11,0.00
2012-5-11,75,66,53,50,46,43,78,52,35,30.12,30.00,6,2,13,0.00
2012-5-12,79,71,63,54,46,-100,71,45,31,30.19,30.09,8,2,11,0.00
2012-5-13,78,68,58,53,48,38,80,54,28,30.17,30.04,13,6,22,0.00
2012-5-14,81,69,54,49,42,36,66,40,22,30.10,29.99,11,4,15,0.00
2012-5-15,83,70,54,48,44,38,72,44,23,30.05,29.93,9,3,18,0.00
2012-5-16,80,71,61,53,47,36,69,44,25,30.03,29.94,16,5,20,0.00
2012-5-17,81,69,53,44,38,30,56,33,23,30.08,29.95,8,2,17,0.00
2012-5-18,87,73,56,60,52,44,76,50,28,30.02,29.87,6,2,13,0.00
2012-5-19,90,77,64,62,58,-100,82,55,34,30.00,29.92,9,3,20,0.00
2012-5-20,90,77,68,65,61,54,79,59,33,30.07,29.94,10,4,21,0.00
2012-5-21,75,67,61,64,47,-100,79,52,36,30.14,30.05,15,8,26,0.00
2012-5-22,80,68,54,50,46,41,84,50,27,30.08,29.87,11,3,16,0.00
2012-5-23,85,71,55,52,49,47,78,50,29,29.90,29.69,9,3,17,0.00
2012-5-24,91,78,64,61,54,48,61,44,27,29.75,29.58,15,6,31,0.00
2012-5-25,91,83,74,69,65,59,69,55,46,29.96,29.74,8,4,16,0.00
2012-5-26,94,83,72,71,66,62,79,58,40,30.03,29.91,9,3,19,0.00
2012-5-27,93,83,71,65,62,58,70,50,32,30.00,29.84,10,4,19,0.00
2012-5-28,94,85,74,65,61,56,68,47,29,29.88,29.75,11,5,26,0.00
2012-5-29,91,80,72,64,53,-100,61,43,22,29.92,29.75,11,4,17,0.00
2012-5-30,85,74,62,58,50,40,82,46,26,29.98,29.81,10,3,14,0.00
2012-5-31,73,64,54,62,51,45,87,65,40,29.87,29.72,15,5,23,0.00
2012-6-1,69,60,51,50,43,38,86,57,33,29.95,29.85,14,7,25,0.00
2012-6-2,80,66,55,53,47,-100,72,54,35,29.93,29.77,13,4,19,0.00
2012-6-3,88,74,59,61,55,51,81,55,31,29.90,29.77,8,2,14,0.00
2012-6-4,92,76,64,72,62,57,86,64,35,29.85,29.71,13,4,26,0.00
2012-6-5,84,74,63,59,51,47,79,47,28,29.94,29.84,15,5,21,0.00
2012-6-6,81,72,62,51,46,42,62,41,26,30.04,29.93,14,4,22,0.00
2012-6-7,85,72,58,53,48,43,79,45,25,30.10,30.02,10,2,16,0.00
2012-6-8,87,75,60,55,50,45,77,46,25,30.09,29.92,8,2,15,0.00
2012-6-9,90,78,61,61,54,-100,74,48,33,29.96,29.80,9,3,18,0.00
2012-6-10,88,79,70,67,61,55,70,55,45,29.91,29.81,12,4,23,0.00
2012-6-11,80,74,70,70,67,64,88,79,62,29.94,29.82,15,4,24,0.00
2012-6-12,83,75,66,66,52,36,88,51,19,30.10,29.94,15,6,21,0.00
2012-6-13,83,72,57,52,49,44,79,48,28,30.13,30.00,7,2,14,0.00
2012-6-14,88,76,60,57,55,52,82,52,31,30.05,29.92,10,2,16,0.00
2012-6-15,92,79,66,63,59,55,76,53,31,30.03,29.92,9,3,17,0.00
2012-6-16,94,83,73,69,62,-100,74,52,35,30.06,29.87,14,4,31,0.00
2012-6-17,90,79,69,70,67,64,90,70,51,30.02,29.81,8,4,18,0.00
2012-6-18,93,84,75,68,64,60,68,53,35,29.87,29.77,14,6,25,0.00
2012-6-19,92,84,75,68,64,61,71,53,38,29.97,29.87,13,6,24,0.00
2012-6-20,95,86,72,65,61,58,61,45,31,30.04,29.91,12,5,21,0.00
2012-6-21,87,81,74,66,62,56,63,53,41,30.00,29.92,12,5,21,0.00
2012-6-22,89,78,66,62,56,51,81,50,28,30.03,29.94,11,4,17,0.00
2012-6-23,89,78,65,60,55,48,80,49,28,30.02,29.90,6,2,11,0.00
2012-6-24,98,84,68,63,58,52,68,44,29,29.98,29.85,7,2,14,0.00
2012-6-25,92,84,76,66,60,41,62,45,23,29.95,29.84,17,7,26,0.00
2012-6-26,88,78,65,52,48,44,61,37,24,29.99,29.87,10,3,17,0.00
2012-6-27,99,80,63,56,52,47,66,40,18,29.99,29.84,8,3,15,0.00
2012-6-28,109,91,73,59,52,42,53,30,11,29.93,29.84,11,4,21,0.00
2012-6-29,106,91,76,67,61,55,58,38,23,29.92,29.76,9,2,15,0.00
2012-6-30,105,93,79,67,62,55,61,37,20,29.87,29.77,8,4,20,0.00
2012-7-1,102,90,78,68,65,62,67,46,28,29.96,29.83,10,3,19,0.00
2012-7-2,100,86,76,69,66,60,73,53,30,29.97,29.90,10,2,26,0.00
2012-7-3,101,87,74,71,66,60,75,53,27,29.97,29.83,11,4,19,0.00
2012-7-4,104,92,83,71,63,55,66,41,21,29.96,29.85,9,3,18,0.00
2012-7-5,106,93,79,67,64,59,67,41,23,29.97,29.89,13,3,18,0.00
2012-7-6,106,95,82,71,66,61,66,40,25,29.97,29.89,8,2,14,0.00
2012-7-7,107,93,82,69,66,61,63,44,24,29.99,29.86,10,3,19,0.00
2012-7-8,100,86,74,74,66,-100,90,58,37,30.02,29.87,13,5,30,0.00
2012-7-9,93,83,74,73,64,56,89,57,33,30.02,29.92,12,5,19,0.00
2012-7-10,95,85,73,63,59,54,71,43,27,30.01,29.92,10,3,20,0.00
2012-7-11,95,84,74,62,58,54,54,42,27,30.05,29.96,14,6,20,0.00
2012-7-12,95,86,74,65,62,58,70,46,31,30.02,29.94,8,2,16,0.00
2012-7-13,92,81,73,70,64,-100,78,60,40,30.03,29.94,11,3,22,0.00
2012-7-14,90,81,74,72,68,59,78,64,42,30.06,29.96,6,2,11,0.00
2012-7-15,94,84,73,70,68,63,84,60,38,30.10,29.96,7,2,13,0.00
2012-7-16,96,87,78,72,69,66,79,58,40,30.02,29.85,6,3,14,0.00
2012-7-17,98,89,81,72,69,64,66,53,35,29.92,29.81,10,4,16,0.00
2012-7-18,103,92,80,72,68,62,73,48,26,29.94,29.81,11,4,17,0.00
2012-7-19,103,90,83,71,65,-100,65,47,28,29.94,29.79,11,6,19,0.00
2012-7-20,89,82,77,69,67,64,74,60,50,30.02,29.89,12,8,20,0.00
2012-7-21,94,82,69,66,62,55,86,54,28,30.09,29.99,9,2,16,0.00
2012-7-22,98,86,74,66,61,57,61,44,29,30.10,29.98,7,2,15,0.00
2012-7-23,104,92,80,71,66,61,70,46,27,30.07,29.92,10,4,20,0.00
2012-7-24,103,94,85,70,66,62,54,41,27,29.98,29.81,11,4,22,0.00
2012-7-25,105,95,85,70,64,59,56,38,23,29.87,29.68,11,5,21,0.00
2012-7-26,94,89,81,70,67,63,70,49,38,29.84,29.69,10,6,21,0.00
2012-7-27,99,87,75,71,63,53,81,50,23,29.98,29.84,15,7,29,0.00
2012-7-28,93,83,72,61,58,54,67,44,28,30.10,29.97,13,5,20,0.00
2012-7-29,85,77,71,70,66,60,91,68,50,30.10,29.91,6,2,13,0.00
2012-7-30,87,80,74,70,68,66,82,67,54,29.92,29.85,11,3,16,0.00
2012-7-31,102,86,72,70,67,59,89,59,25,29.95,29.82,7,2,12,0.00
2012-8-1,100,90,79,70,64,49,69,45,24,29.92,29.79,11,4,14,0.00
2012-8-2,95,85,76,72,65,51,79,53,29,29.84,29.71,13,3,18,0.00
2012-8-3,99,84,75,74,68,-100,81,64,41,29.81,29.75,6,2,14,0.00
2012-8-4,96,84,74,76,72,68,89,69,43,29.94,29.79,15,4,40,0.00
2012-8-5,91,79,74,72,59,-100,90,58,29,30.12,29.90,13,5,22,0.00
2012-8-6,94,81,69,63,58,53,74,49,27,30.13,29.97,8,2,12,0.00
2012-8-7,97,83,68,64,60,54,82,49,26,30.00,29.90,7,2,12,0.00
2012-8-8,99,86,72,64,60,57,74,45,25,29.97,29.85,14,4,29,0.00
2012-8-9,93,80,70,66,61,-100,85,58,33,29.96,29.74,15,6,23,0.00
2012-8-10,81,75,68,63,57,53,75,56,39,29.97,29.83,17,8,24,0.00
2012-8-11,86,74,61,57,50,-100,82,47,22,30.04,29.93,10,3,17,0.00
2012-8-12,83,73,64,62,55,52,74,55,35,30.02,29.87,8,2,16,0.00
2012-8-13,80,73,66,64,61,55,85,67,51,29.96,29.83,12,6,21,0.00
2012-8-14,80,72,66,61,59,56,81,66,45,30.00,29.92,9,4,17,0.00
2012-8-15,91,76,62,61,59,56,87,60,33,30.00,29.84,6,2,15,0.00
2012-8-16,97,79,72,73,65,59,88,65,38,29.96,29.80,13,4,20,0.00
2012-8-17,82,73,65,65,50,42,77,47,25,30.05,29.95,11,6,20,0.00
2012-8-18,83,71,57,55,50,43,84,51,26,30.01,29.88,11,3,17,0.00
2012-8-19,85,74,67,56,50,-100,67,45,23,29.95,29.89,12,3,22,0.00
2012-8-20,87,72,60,54,50,43,76,49,23,29.99,29.92,10,4,19,0.00
2012-8-21,90,77,61,57,52,48,78,46,24,30.03,29.96,12,3,20,0.00
2012-8-22,94,79,64,57,53,49,73,44,23,30.06,29.98,9,2,12,0.00
2012-8-23,97,81,66,60,53,-100,73,43,20,30.06,29.95,6,2,11,0.00
2012-8-24,94,83,72,82,56,51,91,41,25,30.04,29.94,9,4,17,0.00
2012-8-25,88,77,70,72,63,59,87,64,40,30.02,29.94,12,3,26,0.00
2012-8-26,89,78,71,73,68,65,90,73,49,30.02,29.92,11,4,21,0.00
2012-8-27,91,80,74,73,66,-100,91,68,35,30.09,29.96,13,5,19,0.00
2012-8-28,94,79,65,63,61,57,84,57,32,30.10,29.96,12,4,23,0.00
2012-8-29,95,81,67,64,60,56,83,54,30,30.05,29.92,6,2,17,0.00
2012-8-30,99,84,69,66,59,56,71,46,24,30.01,29.90,7,2,15,0.00
2012-8-31,83,78,74,76,71,66,91,78,57,30.02,29.86,6,2,14,0.00
2012-9-1,81,76,74,74,64,-100,91,80,3,29.87,29.73,10,4,25,0.00
2012-9-2,83,77,74,73,72,71,91,84,69,29.81,29.74,16,5,26,0.00
2012-9-3,88,79,75,71,70,69,84,75,55,29.88,29.81,10,5,17,0.00
2012-9-4,91,80,72,73,68,62,89,69,38,29.92,29.81,8,2,12,0.00
2012-9-5,85,77,70,73,70,64,87,79,64,29.89,29.78,17,3,31,0.00
2012-9-6,92,78,70,73,68,61,91,73,47,29.93,29.85,22,2,42,0.00
2012-9-7,94,75,66,71,64,61,88,72,46,29.89,29.59,15,4,36,0.00
2012-9-8,75,67,60,64,51,42,83,59,36,30.02,29.85,15,7,26,0.00
2012-9-9,76,67,59,54,49,45,76,54,36,30.13,29.92,13,6,23,0.00
2012-9-10,79,67,54,55,52,49,85,62,37,30.20,30.08,6,2,13,0.00
2012-9-11,84,71,58,59,56,53,87,61,36,30.16,30.05,11,3,20,0.00
2012-9-12,85,73,60,60,57,53,87,61,34,30.17,30.07,10,3,18,0.00
2012-9-13,86,72,62,65,58,52,86,64,37,30.28,30.12,18,4,25,0.00
2012-9-14,71,63,59,57,55,52,88,75,56,30.33,30.26,12,6,20,0.00
2012-9-15,70,63,54,55,51,48,88,66,48,30.29,30.13,4,1,11,0.00
2012-9-16,72,67,62,63,58,53,89,74,65,30.13,29.98,5,1,8,0.00
2012-9-17,75,68,64,67,64,57,91,85,70,29.98,29.77,15,2,26,0.00
2012-9-18,69,60,52,59,45,36,83,60,31,30.07,29.83,13,6,23,0.00
2012-9-19,75,61,47,49,45,40,87,59,32,30.12,29.93,12,4,22,0.00
2012-9-20,79,67,59,54,44,-100,76,48,21,29.99,29.92,11,4,20,0.00
2012-9-21,83,69,55,62,50,43,74,53,30,29.99,29.67,12,5,21,0.00
2012-9-22,69,60,51,50,36,-100,85,48,20,30.21,29.87,15,5,27,0.00
2012-9-23,68,55,44,43,37,31,82,55,26,30.31,30.21,9,2,17,0.00
2012-9-24,73,58,44,47,42,35,87,58,28,30.24,29.93,9,3,21,0.00
2012-9-25,86,69,59,71,58,47,88,70,47,29.94,29.78,15,3,27,0.00
2012-9-26,78,70,65,66,63,61,92,80,56,30.06,29.90,13,2,23,0.00
2012-9-27,71,68,65,64,62,59,91,81,69,30.14,30.06,9,3,12,0.00
2012-9-28,71,62,56,60,52,43,86,70,37,30.17,30.07,9,3,13,0.00
2012-9-29,76,62,52,54,48,43,86,66,32,30.12,29.98,9,2,12,0.00
2012-9-30,75,63,53,54,50,44,87,64,35,29.98,29.82,9,2,13,0.00
2012-10-1,67,62,58,49,46,43,71,55,45,29.83,29.73,13,6,20,0.00
2012-10-2,72,61,51,56,47,44,83,63,39,29.87,29.75,12,4,20,0.00
2012-10-3,76,66,59,57,53,48,84,66,37,30.04,29.87,11,2,18,0.00
2012-10-4,81,68,58,58,54,45,85,62,41,30.17,30.04,17,4,23,0.00
2012-10-5,58,49,43,46,42,35,87,76,61,30.23,30.12,14,7,20,0.00
2012-10-6,51,44,38,36,31,27,84,62,41,30.24,30.17,10,5,14,0.00
2012-10-7,55,46,38,36,30,24,81,56,31,30.26,30.15,12,4,18,0.00
2012-10-8,61,48,36,37,32,-100,87,61,31,30.19,30.04,9,3,18,0.00
2012-10-9,67,55,44,44,40,36,81,59,38,30.06,29.88,14,4,27,0.00
2012-10-10,59,50,43,43,33,23,83,57,28,30.27,29.97,17,5,27,0.00
2012-10-11,65,52,39,50,37,31,82,60,36,30.22,30.10,11,3,19,0.00
2012-10-12,66,57,51,51,46,40,87,68,49,30.34,30.17,13,4,23,0.00
2012-10-13,78,66,54,62,57,48,88,75,56,30.21,29.77,12,4,22,0.00
2012-10-14,74,66,57,64,56,46,90,72,49,29.93,29.63,18,7,35,0.00
2012-10-15,71,59,49,47,43,38,82,60,31,30.00,29.91,8,3,14,0.00
2012-10-16,83,64,50,53,47,44,84,58,27,29.93,29.59,8,4,20,0.00
2012-10-17,67,62,55,60,53,46,89,72,52,29.63,29.36,21,6,38,0.00
2012-10-18,62,55,49,49,36,28,83,51,29,29.61,29.54,15,8,32,0.00
2012-10-19,55,52,48,43,40,37,83,66,53,29.77,29.53,16,9,28,0.00
2012-10-20,65,55,50,45,43,41,73,63,43,29.89,29.77,8,3,14,0.00
2012-10-21,80,63,49,61,51,43,82,66,43,29.93,29.84,7,2,20,0.00
2012-10-22,74,68,64,66,58,-100,88,75,62,29.93,29.88,7,3,18,0.00
2012-10-23,81,70,64,64,59,55,90,70,47,29.96,29.83,8,4,18,0.00
2012-10-24,83,73,65,64,60,56,76,64,48,29.96,29.84,11,5,21,0.00
2012-10-25,82,67,46,61,55,39,84,68,49,30.14,29.75,18,8,34,0.00
2012-10-26,51,46,41,40,30,26,75,54,38,30.32,30.12,18,11,27,0.00
2012-10-27,51,44,36,30,28,26,67,54,39,30.30,30.19,12,8,21,0.00
2012-10-28,52,44,37,32,29,27,68,54,41,30.25,30.19,13,6,20,0.00
2012-10-29,56,45,34,32,27,19,76,52,24,30.30,30.10,10,4,17,0.00
2012-10-30,59,47,38,28,25,22,63,44,26,30.10,29.85,17,7,32,0.00
2012-10-31,58,47,39,28,23,14,62,41,18,29.96,29.89,13,6,22,0.00
2012-11-1,62,49,36,40,30,21,75,50,33,29.99,29.85,8,2,13,0.00
2012-11-2,58,50,43,39,31,28,76,50,36,30.07,29.86,9,4,14,0.00
2012-11-3,52,48,43,37,34,32,76,59,50,30.17,29.98,12,5,17,0.00
2012-11-4,51,43,33,35,32,28,85,66,42,30.23,30.13,6,2,12,0.00
2012-11-5,45,44,42,40,37,33,86,77,62,30.14,30.04,7,2,11,0.00
2012-11-6,48,45,40,42,38,34,83,77,71,30.06,29.90,7,2,16,0.00
2012-11-7,49,46,37,41,36,31,83,67,57,30.16,29.91,12,5,19,0.00
2012-11-8,58,44,31,38,33,27,86,68,45,30.21,30.04,10,2,15,0.00
2012-11-9,72,58,43,52,45,36,79,62,47,30.05,29.89,12,4,22,0.00
2012-11-10,80,67,57,51,46,39,62,49,24,29.98,29.88,19,8,33,0.00
2012-11-11,69,60,41,59,50,35,88,70,54,30.04,29.76,17,8,36,0.00
2012-11-12,47,40,31,35,20,16,84,46,30,30.40,30.03,16,8,25,0.00
2012-11-13,51,39,29,25,22,15,80,53,25,30.51,30.39,6,2,11,0.00
2012-11-14,50,39,33,27,24,-100,76,57,32,30.47,30.32,5,1,10,0.00
2012-11-15,54,40,29,31,27,24,81,62,33,30.37,30.30,3,1,7,0.00
2012-11-16,59,44,32,32,29,27,82,60,32,30.44,30.35,4,1,7,0.00
2012-11-17,57,43,31,34,30,26,83,63,32,30.49,30.37,6,1,11,0.00
2012-11-18,61,45,31,35,31,27,84,62,29,30.38,30.26,8,1,14,0.00
2012-11-19,59,50,40,39,36,33,76,59,45,30.28,30.10,5,2,12,0.00
2012-11-20,62,52,40,47,42,36,84,70,46,30.17,30.05,10,3,16,0.00
2012-11-21,62,49,41,49,44,38,91,82,60,30.26,30.11,5,2,9,0.00
2012-11-22,69,55,40,52,43,36,89,68,36,30.12,29.90,12,5,22,0.00
2012-11-23,58,43,31,51,25,14,76,50,32,30.32,30.02,18,10,33,0.00
2012-11-24,39,32,26,21,16,12,60,51,38,30.32,29.99,9,4,17,0.00
2012-11-25,57,44,33,30,24,19,64,46,30,30.03,29.88,11,3,16,0.00
2012-11-26,43,39,33,29,26,18,66,59,41,30.34,30.02,12,6,20,0.00
2012-11-27,40,32,26,21,17,14,69,54,35,30.43,30.28,10,3,17,0.00
2012-11-28,49,37,26,27,22,19,77,58,37,30.42,30.27,5,1,11,0.00
2012-11-29,60,45,31,32,28,24,79,54,30,30.27,30.06,10,3,17,0.00
2012-11-30,67,53,42,42,36,29,71,52,39,30.10,30.02,9,3,15,0.00
2012-12-1,70,57,44,53,47,37,90,70,55,30.09,29.92,13,5,23,0.00
2012-12-2,74,66,62,58,55,51,85,69,53,30.00,29.92,12,5,21,0.00
2012-12-3,73,66,62,59,57,54,86,72,52,29.99,29.84,19,7,32,0.00
2012-12-4,66,54,41,56,43,35,87,70,45,30.27,29.91,11,5,19,0.00
2012-12-5,56,46,37,36,34,31,85,65,42,30.35,30.13,4,2,9,0.00
2012-12-6,52,44,37,40,34,-100,79,69,58,30.13,29.90,6,2,10,0.00
2012-12-7,59,52,46,50,46,40,87,79,66,29.91,29.78,7,3,13,0.00
2012-12-8,50,47,45,46,42,38,88,83,71,29.97,29.84,9,5,15,0.00
2012-12-9,51,46,41,47,42,31,90,84,67,29.91,29.74,11,4,21,0.00
2012-12-10,41,32,29,31,19,16,71,59,53,30.03,29.84,16,7,25,0.00
2012-12-11,42,30,22,21,17,15,75,60,33,30.18,30.02,7,1,12,0.00
2012-12-12,50,36,24,26,21,16,80,57,26,30.30,30.17,6,2,13,0.00
2012-12-13,55,41,27,25,22,20,78,51,25,30.28,30.14,11,3,20,0.00
2012-12-14,56,43,31,38,28,24,77,56,33,30.19,29.94,8,2,12,0.00
2012-12-15,65,53,44,48,44,36,88,75,48,29.97,29.56,13,6,26,0.00
2012-12-16,56,48,42,44,40,36,87,74,60,29.73,29.62,9,2,11,0.00
2012-12-17,43,41,39,37,35,30,85,79,69,29.77,29.64,10,6,18,0.00
2012-12-18,60,46,34,35,31,29,84,61,33,29.89,29.64,13,5,23,0.00
2012-12-19,51,42,36,45,33,28,85,71,62,29.97,29.50,7,3,15,0.00
2012-12-20,54,42,29,51,33,15,90,72,55,29.91,29.22,29,15,52,0.00
2012-12-21,38,31,27,15,11,8,56,44,30,30.26,29.90,22,10,41,0.00
2012-12-22,47,34,22,23,17,12,73,50,31,30.25,29.92,7,3,14,0.00
2012-12-23,53,40,31,30,26,22,78,60,34,29.93,29.83,11,3,16,0.00
2012-12-24,38,31,25,30,23,12,79,72,59,30.10,29.77,14,7,22,0.00
2012-12-25,35,30,24,24,20,13,71,66,60,30.22,29.95,19,11,28,0.00
2012-12-26,33,31,29,23,20,18,75,65,60,30.14,29.87,20,12,35,0.00
2012-12-27,34,31,29,22,20,18,70,63,53,30.17,30.03,7,3,14,0.00
2012-12-28,37,33,30,30,26,21,87,76,65,30.04,29.85,5,2,11,0.00
2012-12-29,33,30,22,29,20,14,86,68,52,30.30,29.87,15,6,26,0.00
2012-12-30,40,29,19,25,19,13,79,67,46,30.39,30.18,10,3,18,0.00
2012-12-31,37,35,33,31,26,19,88,71,50,30.18,30.04,9,3,17,0.00
2013-1-1,34,25,21,31,16,10,87,68,53,30.23,30.06,13,6,18,0.00